Willow Run Airport Detroit US
ICAO: KYIP
IATA: YIP
Category: Medium
Scheduled Services: No

Elevation: 716 ft
TransAlt. 18000 ft.

Airport Communications:
DETROIT APP/DEP:118.95
ASOS:132.35
ATIS:127.425
GND:121.75
TWR:125.275

KYIP Zoom In..

Runways:

(A) RW 05L length 5996 ft width 160 ft
---- / hdg 53

(B) RW 05R length 7543 ft width 160 ft
ILS 109.50 / hdg 53

(C) RW 09 length 7292 ft width 160 ft
---- / hdg 95

(D) RW 14 length 6312 ft width 160 ft
---- / hdg 142

(E) RW 23L length 7543 ft width 160 ft
ILS 109.50 / hdg 233

(F) RW 23R length 5996 ft width 160 ft
---- / hdg 233

(G) RW 27 length 7292 ft width 160 ft
---- / hdg 275

(H) RW 32 length 6312 ft width 160 ft
---- / hdg 322

Location; KYIP
Day. 22 / Time. 01.53 Zulu
* Altimeter: 30.07
* Temperature: 13° c. 55.4°f.
* Wind from: 080° Speed 03 kn.
Dewpoint: 09° c.
Visibility: 10 Statute Miles.
Clouds: Overcast 1500 ft.

KYIP 220153Z 08003KT 10SM OVC015 13/09 A3007 RMK AO2 RAB04E27 SLP182 P0001 T01280089


Wind From 080°
Speed 03 kn.

 
 
jpsmedia.com for Web Design SOUNDCLOUD worldairports.se 2018   terms of use